Weather in Radovishche

Russia / Oryol Oblast     53˚16′32″N   35˚19′27″E
temp.,
°C
wind,
m/s
gust,
m/s
humid.,
%
clouds,
%
prec.,
mm/h
press.,
hPa
HPBL,
m
17 january, sun
sun1700:00−16˚wnw4995100 0.3 1012377
03:00−16˚wnw3795100 0.8 1013407
06:00−16˚w3596100 0.8 1013282
09:00−15˚wnw2595100 1.3 1014305
12:00−15˚n2391100 0.1 1016366
15:00−15˚n2391100 0.1 1016377
18:00−17˚ne2395100 0.0 1018157
21:00−19˚nne3596100 0.1 1018179
18 january, mon
mon1800:00−23˚ene229741 0.0 101920
03:00−24˚ne129755 0.0 102020
06:00−22˚ne1297100 0.0 101964
09:00−22˚ne1297100 0.0 102090
12:00−19˚e1292100 0.0 1020261
15:00−18˚ne0191100 0.1 1020256
18:00−19˚e0198100 0.1 101930
21:00−19˚e0098100 0.4 101949
19 january, tue
tue1900:00−19˚ssw0098100 0.2 101924
03:00−19˚wnw1298100 0.3 101954
06:00−18˚nw1198100 0.3 101982
09:00−18˚wnw1297100 0.6 101999
12:00−16˚wnw2393100 0.3 1019241
15:00−15˚wnw2393100 0.4 1018296
18:00−16˚wnw2296100 0.0 101853
21:00−18˚wnw2397100 0.0 101935
20 january, wed
wed2000:00−19˚wnw239999 0.0 102027
03:00−19˚wnw239998 0.1 102134
06:00−20˚wnw229977 0.0 102220
09:00−20˚w229967 0.0 102320
12:00−15˚w239342 0.0 1024157
15:00−13˚sw239457 0.0 1023200
18:00−17˚sw239650 0.0 102422
21:00−17˚ssw239625 0.0 102540
21 january, thu
thu2100:00−18˚ssw369321 0.0 102496
03:00−17˚s499056 0.0 1023204
06:00−14˚s4119299 0.0 1021267
09:00−12˚s5139499 0.1 1020366
12:00−8˚ssw61192100 0.7 1018510
15:00−5˚sw61194100 1.2 1016616
18:00−4˚sw41196100 0.5 1016502
21:00−2˚sw5119698 1.1 1016509